Dewpoint
56 55 55 56 55 56 55 56 56 55 56 55 55 54 54 55 55 57 57 56 55 56 56 55 54 54 55 55 54 49 51 54 53 53 51 52 52 51 51 49 49 50
56 55 54 55 56 55 56 59 57 55 57 57 56 56 55 54 55 57 56 55 54 56 55 55 55 54 54 53 54 52 52 53 52 52 54 53 52 52 52 51 50 53
55 56 54 55 55 57 56 58 59 55 58 58 58 57 56 55 56 57 56 55 55 54 55 55 55 55 54 54 54 53 53 53 53 53 53 52 53 52 51 52 51 49
56 57 55 56 56 58 57 57 59 56 58 56 59 57 56 55 56 57 57 55 56 55 56 55 56 54 52 53 54 53 52 53 53 54 52 52 52 51 51 50 50 50
58 58 58 58 57 59 57 56 57 57 56 55 58 57 56 55 56 56 56 56 56 54 55 55 55 55 54 53 53 52 53 53 53 53 52 52 51 51 51 51 48 49
59 56 57 59 60 61 60 55 57 57 58 55 56 55 57 56 54 54 55 55 56 54 54 53 53 53 54 53 54 51 52 50 50 53 50 50 49 50 46 51 47 48
60 61 60 58 61 60 59 61 59 57 57 57 55 54 56 55 54 54 53 54 54 54 52 52 51 53 52 53 53 52 51 52 49 49 49 48 49 49 48 49 47 46
60 57 61 62 60 59 59 60 62 61 61 61 59 55 56 54 53 54 54 53 52 52 52 51 51 50 51 52 51 52 51 53 48 47 48 46 49 46 48 50 48 47
58 57 61 62 62 61 60 58 59 61 61 61 61 61 58 54 52 54 53 52 52 53 52 51 50 50 51 52 51 51 49 51 51 48 48 50 47 48 44 45 47 48
59 60 61 61 61 62 61 60 61 61 61 60 60 60 60 60 55 51 52 53 52 52 52 52 51 51 51 50 49 49 49 48 48 49 48 49 46 45 43 46 45 47
59 59 61 62 61 61 61 59 58 59 60 58 58 58 59 59 59 58 55 51 53 52 51 51 51 50 49 50 50 51 49 49 48 47 48 48 48 47 49 47 46 47
59 60 59 59 59 59 58 59 58 58 58 58 59 58 58 58 58 58 56 53 51 51 51 51 51 50 49 49 48 49 50 49 49 48 49 48 48 49 47 47 46 46
58 58 59 59 59 59 59 59 59 60 59 59 59 58 58 57 57 56 55 55 55 55 51 51 52 51 50 50 49 48 49 49 50 49 50 49 49 48 47 46 46 45
52 54 58 59 59 58 57 58 58 58 58 59 59 58 58 57 56 56 56 55 53 52 54 55 55 54 53 51 49 48 49 49 50 50 48 49 49 47 47 46 45 45
53 52 57 56 57 58 57 57 57 57 58 57 57 57 57 57 56 57 56 55 55 56 55 55 55 55 54 52 50 48 50 50 50 48 48 48 47 47 46 45 43 43
46 51 52 53 54 55 55 57 58 57 57 57 59 59 58 58 57 57 55 56 55 55 55 57 58 56 53 48 48 49 50 51 52 51 50 48 46 44 44 43 43 43
49 45 51 51 53 55 53 54 52 54 56 55 57 58 58 58 58 57 57 56 55 55 54 56 56 54 48 45 42 44 50 51 50 50 49 48 46 45 43 44 43 39
45 48 49 47 50 50 52 53 53 53 53 55 56 56 58 58 59 57 56 57 56 55 55 57 56 50 46 43 41 42 46 50 50 47 47 46 43 43 41 41 39 40
48 48 47 50 49 50 50 51 51 53 53 54 54 56 57 55 56 56 56 56 56 56 54 49 48 41 41 40 39 41 42 44 44 48 46 46 43 43 43 43 41 42
48 47 48 48 48 49 49 49 50 50 54 55 54 54 54 55 54 55 55 55 56 55 50 46 45 39 37 38 38 38 40 42 43 43 43 42 43 40 42 40 42 42
41 42 48 48 49 49 49 49 50 50 51 54 54 54 54 54 53 53 54 54 54 51 46 45 42 36 36 36 36 37 39 42 44 46 41 41 43 45 44 43 44 45
43 46 49 48 48 48 48 48 49 50 51 54 53 53 53 53 53 53 53 54 54 49 47 43 40 36 36 36 35 34 36 40 44 46 42 46 46 46 45 46 43 42
45 47 48 48 47 47 47 48 49 50 51 52 52 53 52 52 52 52 52 52 50 48 45 41 37 36 35 34 33 33 37 41 45 41 41 42 43 43 39 39 39 39
43 40 46 47 46 45 46 47 48 49 49 51 51 51 51 51 51 51 51 52 49 46 44 41 39 35 33 32 32 32 36 42 42 42 42 41 38 40 41 40 40 45
45 46 47 47 46 47 49 48 49 49 48 51 52 51 51 51 49 49 51 50 48 45 43 40 37 34 33 32 31 31 35 41 42 38 39 38 39 37 38 39 37 41
47 48 46 43 43 49 49 49 49 49 48 47 50 50 49 47 46 48 50 48 44 42 42 40 36 35 35 33 33 32 32 39 39 37 36 35 36 35 41 40 40 36